Location: Suzhou
(31.3110°N, 120.6180°E)
Time: 12:49:11
(UTC+08:00)

FO-29 - Pass Details

Date: 21 April 2026
Orbit: 800 x 1320 km, 98.5° (Epoch: 15 May)

Event Time Altitude Azimuth Distance (km) Brightness Sun altitude
Rises 21:16:08 0° 358° (N) 4,141 13.3 -32.1°
Reaches altitude 10° 21:19:26 10° 345° (NNW) 3,097 12.7 -32.7°
Maximum altitude 21:24:44 24° 296° (WNW) 2,113 11.8 -33.5°
Drops below altitude 10° 21:29:38 10° 246° (WSW) 2,808 12.1 -34.2°
Sets 21:32:29 0° 232° (SW) 3,671 12.6 -34.7°
